Flag for U.S.A. Weather past 2 weeks in Naples, Florida, U.S.A.

Now
76 °F

Scattered clouds.


Feels Like: 78 °F
Forecast: 57 / 74 °F
Wind: 13 mph from South

Location: Naples Municipal

Current Time: Feb 1, 2015 at 5:26:57 PM

Latest Report: Feb 1, 2015 at 4:53 PM


Visibility: 10 mi

Pressure: 30.06 "Hg

Humidity: 47%

Dew point: 54 °F

Location of NaplesLocation

Historic Weather in Naples — Graph

°F

Naples temperature yesterday

Maximum temperature yesterday: 76 °F (at 3:53 PM)
Minimum temperature yesterday: 52 °F (at 6:53 AM)
Average temperature yesterday: 64 °F

Past Weeks' High & Low Weather Summary

 TemperatureHumidityPressure
High81 °F (Jan 22, 1:53 PM)97% (Jan 19, 6:53 AM)30.28 "Hg (Jan 19, 6:53 AM)
Low48 °F (Jan 25, 6:53 AM)27% (Jan 28, 2:53 PM)29.86 "Hg (Jan 24, 5:53 AM)
Average65 °F72%30.09 "Hg
* Reported Jan 17 3:53 PM — Feb 1 3:53 PM, Naples, Weather by CustomWeather, © 2014

Note: Actual official high and low records may vary slightly from our data, if they occured in-between our weather recording intervals... More about our weather records

Advertising

Naples weather history for previous 24 hours

 ConditionsComfort  
Time TempWeatherWind HumidityBarometerVisibility
3:53 PM
Feb 1
78 °FSunny.15 mph40%30.07 "Hg10 mi
2:53 PM77 °FScattered clouds.9 mph44%30.09 "Hg10 mi
1:53 PM78 °FSunny.15 mph39%30.11 "Hg10 mi
12:53 PM77 °FPassing clouds.14 mph42%30.14 "Hg10 mi
11:53 AM74 °FPassing clouds.15 mph45%30.18 "Hg10 mi
10:53 AM72 °FPassing clouds.15 mph53%30.21 "Hg10 mi
9:53 AM69 °FSunny.10 mph57%30.21 "Hg10 mi
8:53 AM63 °FSunny.9 mph70%30.21 "Hg10 mi
7:53 AM56 °FSunny.6 mph87%30.20 "Hg10 mi
6:53 AM53 °FClear.5 mph89%30.20 "Hg10 mi
5:53 AM53 °FClear.6 mph86%30.19 "Hg10 mi
4:53 AM53 °FPassing clouds.6 mph86%30.18 "Hg10 mi
3:53 AM54 °FClear.7 mph86%30.18 "Hg10 mi
2:53 AM55 °FPassing clouds.6 mph83%30.18 "Hg10 mi
1:53 AM56 °FPassing clouds.7 mph84%30.19 "Hg10 mi
12:53 AM56 °FClear.7 mph81%30.20 "Hg10 mi
11:53 PM
Jan 31
57 °FClear.8 mph81%30.21 "Hg10 mi
10:53 PM59 °FClear.7 mph78%30.23 "Hg10 mi
9:53 PM59 °FClear.6 mph75%30.23 "Hg10 mi
8:53 PM61 °FClear.7 mph70%30.22 "Hg10 mi
7:53 PM64 °FClear.9 mph61%30.21 "Hg10 mi
6:53 PM66 °FClear.7 mph56%30.20 "Hg10 mi
5:53 PM71 °FPassing clouds.10 mph47%30.18 "Hg10 mi
Weather by CustomWeather, © 2014

See weather overviewHow to use our weather pages